Погода Верхотурье

Погода Верхотурье : погода сейчас, прогноз погоды и архив. Всё, что Вы хотите узнать о погоде Верхотурье!

Хотите узнать прогноз погоды Верхотурье? Тогда Вам сюда: Погода Верхотурье

Поиск расширенной информации на нашем сайте:

Другие новости

Новости СМИ2

Главная страница сайта

Новости сайта

03.07.2017

Напоминаем, что на нашем специализированном сайте Метеоцентр.Азия вы можете получить высокодетализированные автоматические прогнозы погоды по пунктам России, СНГ и мира в авиационном формате (включающие направление и скорость ветра, видимость, явления погоды, количество и форму облачности, нижнюю и верхнюю границу облачности).

Рекомендуем: Кольчуг цветмет цены.

Погода Верхотурье - сегодня

Время (UTC), дата Ветер
(°,м/с) 
Видим.   Явления Облачность Т
(°С)
Тd
(°С)
f(%) Тe
(°С)
Pmin
(гПа)
dP
(гПа)
Po
(мм)
O2
(г/м3)
Тmin Tmax R s Состояние
почвы
03 19.10.17 170 (Ю) 20000 м    9/6 300 м кучево-дожд., средняя 
[Cb calv|Ac und]
+2.5 +0.8 89 +2  998.3  -1.3  737  294  -0.7        влажная 
06 19.10.17 170 (Ю) 20000 м    9/3 300 м кучево-дожд., средняя 
[Cb calv|Ac und]
+4.5 +1.4 80 +3  996.4  -1.7  736  291           
09 19.10.17 160 (Ю) 20000 м    10/5 300 м кучево-дожд., средняя 
[Cb calv|Ac As]
+6.8 +2.1 72 +6  993.6  -2.6  734  288           
12 19.10.17 150 (ЮВ) 20000 м  слаб. ливневой дождь  10/6 300 м кучево-дожд., средняя 
[Cb calv|Ac As]
+6 +3.6 85 +4  991.6  -2  732  288           
15 19.10.17 200 (Ю) 20000 м  в посл. час ливневой дождь  9/8 300 м кучево-дожд., средняя 
[Cb calv|Ac und]
+5.4 +3 84 +4  990.7  -0.9  732  289    +7.3  0.9     
18 19.10.17 210 (ЮЗ) 3{10}  20000 м  в посл. час ливневой дождь  4/3 300 м кучево-дожд., средняя 
[Cb calv|Ac trans]
+3 +0 81 +2  990.1  -0.7  731  291           
21 19.10.17 240 (ЮЗ) 4{10}  4000 м  слаб. ливневой дождь  10/8 300 м кучево-дожд., средняя 
[Cb calv|As op]
+2.2 +0.2 87 989.3  -0.8  731  292           
00 20.10.17 250 (З) 5-11{11}  4000 м  слаб. ливневой дождь  10/8 300 м кучево-дожд., средняя 
[Cb calv|As op]
+2.6 +0.1 84 989.2  -0.1  731  291           
03 20.10.17 260 (З) 6-10{13}  10 км  слаб. дождь{ливн. осадки}  10/6 300 м средняя 
[Frnb|As op]
+2.5 -0.7 79 990  0.7  731  292  +2.1      влажная 
06 20.10.17 270 (З) 6-12{14}  10 км  слаб. дождь со снегом{ливн. осадки}  10/8 300 м средняя 
[Frnb|As op]
+2.4 -0.5 81 -1  991.8  1.8  732  293           
09 20.10.17 280 (З) 7-13{14}  10 км  слаб. снег{дождь}  10/5 300 м средняя 
[Frnb|As trans]
+3.1 -2.8 65 994.9  3.1  735  293           
12 20.10.17 280 (З) 5-10{14}  10 км  слаб. снег{дождь}  10/6 300 м средняя 
[Frnb|Ac As]
+1.5 -3.6 69 -1  997.9  2.9  737  296           
15 20.10.17 270 (З) 5{12}  20000 м  {снег}  10/5 300 м кучево-дожд., средняя 
[Cb calv|Ac As]
+0.8 -5.2 64 -2  999.3  1.3  738  297    +3.1  0.7     
18 20.10.17 280 (З) 4{11}  10 км  слаб. ливневой снег  10/8 300 м кучево-дожд., средняя 
[Cb calv|As op]
+0 -5.8 65 -2  1000.7  1.4  739  298           
21 20.10.17 300 (СЗ) 5-10{13}  10 км  слаб. ливневой снег  10/5 300 м кучево-дожд., средняя 
[Cb calv|As op]
-0.8 -5.9 68 -4  1002.4  1.6  740  300           
00 21.10.17 300 (СЗ) 5-10{11}  20000 м  {ливн. осадки}  10/6 300 м кучево-дожд., средняя 
[Cb calv|As op]
-0.6 -8.9 53 -4  1003.6  1.2  741  300           
03 21.10.17 270 (З) 3{12}  20000 м    3/1 600 м средняя, верхняя 
[Sc|Ac trans|Ci sp]
-2.6 -7.7 68 -5  1005.2  1.4  742  303  -2.6    0.0    замёрзшая 
06 21.10.17 300 (СЗ) 20000 м    6/4 300 м кучево-дожд., средняя, верхняя 
[Cb calv|Ac trans|Ci fib]
+0.5 -8.3 52 -1  1006.2  1.2  743  300  -2.8         
09 21.10.17 270 (З) 4{10}  20000 м    9/8 300 м кучево-дожд., средняя 
[Cb calv|Ac trans]
+0.9 -8.9 48 -1  1006.4  0.2  743  299           
12 21.10.17 290 (З) 20000 м  {ливн. осадки}  9/6 300 м кучево-дожд., средняя, верхняя 
[Cb calv|Ac trans|Ci sp]
+0.3 -7.8 54 -2  1006.9  0.5  743  300           
18 21.10.17 260 (З) 20000 м    3/0 верхняя 
[Ci fib]
-2.4 -7.1 70 -4  1007.8  0.1  744  303           
21 21.10.17 250 (З) 20000 м    ясно 
-3.2 -7.8 70 -5  1007.8  -0.1  744  304           
00 22.10.17 260 (З) 20000 м    ясно 
-4.5 -7.7 78 -4  1007.9  0.1  744  306           
03 22.10.17 240 (ЮЗ) 20000 м    9/5 600 м средняя, верхняя 
[Sc|Ac trans|Ci sp]
-3.2 -6.8 76 -4  1008.3  0.4  744  304  -4.9        замёрзшая 
06 22.10.17 250 (З) 20000 м    6/3 600 м средняя, верхняя 
[Sc|Ac trans|Ci fib]
-0.7 -6.3 66 -3  1008.6  0.6  745  301           
Время (UTC), дата Ветер
(°,м/с) 
Видим.   Явления Облачность Т
(°С)
Тd
(°С)
f(%) Тe
(°С)
Pmin
(гПа)
dP
(гПа)
Po
(мм)
O2
(г/м3)
Тmin Tmax R s Состояние
почвы

Для получения пояснительной информации подведите курсор к названию столбца.

ПОГОДА Верхотурье - архив

Всё, что Вы хотите узнать о погоде Верхотурье - удобно и подробно!

Выберите нужную дату (начиная с 1 января 2015* года) и нажмите кнопку "Найти".
Будут отображены архивные сводки погоды по пункту Верхотурье, начиная с указанной даты.


Отображать данные в формате CSV (для использования в таблицах Excel)


Внимание! Наш архив погоды предназначен исключительно для личного некоммерческого использования в познавательных целях. Если Вам необходимы официальные справки о состоянии погоды (для производственных, юридических, коммерческих и т.п. целей), обращайтесь в органы Росгидромета.

*Примечание: данная дата относится к архиву по метеостанциям СССР (Россия, СНГ, Балтия).
Архив по метеостанциям Зарубежной Европы и Азии (кроме Китая) хранится 10 дней, по другим регионам земного шара (Китай, Африка, Америка, Австралия, Океания) - 1 день.

Верхотурье - район местоположения метеостанции


Название, широта, долгота, высота метеостанции:
Верхотурье 58.9°ш. 60.8°д. 125 м над ур. моря [Российская Федерация]

Дополнительная информация

В oтличие oт бoльшинства пoгoдных сайтoв мы публикуем пoдрoбную метеoинфoрмацию в детальнoм прoфессиoнальнoм фoрмате.

Характеристики температуры и влажнoсти вoздуха измеряются на высoте 2 м в тени вдали oт зданий и деревьев.
Скoрoсть ветра измеряется на высoте 10 м (на урoвне рoста челoвека скoрoсть ветра ниже в 1.5-2 раза). Если метеoстанция нахoдится в гoрoде или в лесу, тo скoрoсть ветра занижена на 2-4 м/с пo сравнению с oткрытым местoм. Скoрoсть ветра над акватoриями крупных рек и oзёр, а также на вершинах хoлмoв на 2-5 м/с выше, чем в oбычных услoвиях.
Атмoсфернoе давление в разных тoчках местнoсти мoжет значительнo oтличаться oт давления на метеoстанции, в зависимoсти oт услoвий рельефа (при пoдъёме на 10 м давление пoнижается примернo на 1 мм рт.ст.).